TimeCST,TemperatureF,Dew PointF,Humidity,Sea Level PressureIn,VisibilityMPH,Wind Direction,Wind SpeedMPH,Gust SpeedMPH,PrecipitationIn,Events,Conditions,WindDirDegrees,DateUTC
12:15 AM,30.2,24.8,80,30.33,10.0,ESE,10.4,-,N/A,,Clear,120,2013-03-09 06:15:00
12:35 AM,30.2,24.8,80,30.33,10.0,ESE,10.4,-,N/A,,Clear,120,2013-03-09 06:35:00
12:55 AM,30.2,24.8,80,30.33,10.0,SE,9.2,-,N/A,,Clear,130,2013-03-09 06:55:00
1:15 AM,30.2,24.8,80,30.32,10.0,SE,10.4,-,N/A,,Clear,130,2013-03-09 07:15:00
1:35 AM,30.2,24.8,80,30.32,10.0,SE,8.1,-,N/A,,Clear,130,2013-03-09 07:35:00
1:55 AM,30.2,24.8,80,30.31,10.0,SE,6.9,-,N/A,,Clear,130,2013-03-09 07:55:00
2:15 AM,30.2,24.8,80,30.30,10.0,ESE,8.1,-,N/A,,Clear,120,2013-03-09 08:15:00
2:35 AM,32.0,24.8,75,30.29,10.0,SE,10.4,-,N/A,,Clear,130,2013-03-09 08:35:00
2:55 AM,30.2,26.6,86,30.28,10.0,ESE,10.4,-,N/A,,Clear,120,2013-03-09 08:55:00
3:15 AM,30.2,26.6,86,30.27,10.0,SE,10.4,-,N/A,,Clear,130,2013-03-09 09:15:00
3:35 AM,30.2,26.6,86,30.28,10.0,SE,9.2,-,N/A,,Clear,130,2013-03-09 09:35:00
3:55 AM,30.2,26.6,86,30.27,10.0,ESE,9.2,-,N/A,,Clear,120,2013-03-09 09:55:00
4:15 AM,30.2,26.6,86,30.27,10.0,ESE,8.1,-,N/A,,Clear,120,2013-03-09 10:15:00
4:35 AM,30.2,26.6,86,30.27,10.0,ESE,11.5,-,N/A,,Clear,120,2013-03-09 10:35:00
4:55 AM,30.2,26.6,86,30.26,10.0,ESE,11.5,-,N/A,,Clear,120,2013-03-09 10:55:00
5:15 AM,30.2,26.6,86,30.25,10.0,ESE,11.5,-,N/A,,Clear,120,2013-03-09 11:15:00
5:35 AM,30.2,24.8,80,30.26,10.0,SE,10.4,-,N/A,,Clear,130,2013-03-09 11:35:00
5:55 AM,30.2,26.6,86,30.27,10.0,SE,6.9,-,N/A,,Clear,140,2013-03-09 11:55:00
6:15 AM,30.2,26.6,86,30.26,10.0,SE,5.8,-,N/A,,Scattered Clouds,140,2013-03-09 12:15:00
6:35 AM,32.0,26.6,80,30.25,10.0,SE,10.4,-,N/A,,Scattered Clouds,140,2013-03-09 12:35:00
6:55 AM,32.0,28.4,87,30.26,10.0,SSE,8.1,-,N/A,,Scattered Clouds,150,2013-03-09 12:55:00
7:15 AM,33.8,28.4,81,30.27,10.0,SSE,8.1,-,N/A,,Partly Cloudy,160,2013-03-09 13:15:00
7:35 AM,33.8,28.4,81,30.27,10.0,SSE,8.1,-,N/A,,Scattered Clouds,160,2013-03-09 13:35:00
7:55 AM,33.8,28.4,81,30.27,10.0,SE,6.9,-,N/A,,Mostly Cloudy,130,2013-03-09 13:55:00
8:15 AM,33.8,28.4,81,30.26,10.0,SE,9.2,-,N/A,,Partly Cloudy,140,2013-03-09 14:15:00
8:35 AM,35.6,28.4,75,30.26,10.0,SE,11.5,-,N/A,,Scattered Clouds,130,2013-03-09 14:35:00
8:55 AM,35.6,28.4,75,30.25,10.0,SE,10.4,-,N/A,,Scattered Clouds,140,2013-03-09 14:55:00
9:15 AM,37.4,30.2,75,30.25,10.0,SSE,8.1,-,N/A,,Partly Cloudy,150,2013-03-09 15:15:00
9:35 AM,37.4,30.2,75,30.25,10.0,SSE,11.5,-,N/A,,Scattered Clouds,150,2013-03-09 15:35:00
9:55 AM,37.4,30.2,75,30.25,10.0,SSE,9.2,-,N/A,,Mostly Cloudy,150,2013-03-09 15:55:00
10:15 AM,39.2,30.2,70,30.24,10.0,SSE,9.2,-,N/A,,Overcast,150,2013-03-09 16:15:00
10:35 AM,39.2,32.0,75,30.23,10.0,SSE,10.4,-,N/A,,Overcast,150,2013-03-09 16:35:00
10:55 AM,39.2,32.0,75,30.21,10.0,SSE,12.7,-,N/A,,Scattered Clouds,150,2013-03-09 16:55:00
11:15 AM,39.2,30.2,70,30.20,10.0,SSE,13.8,-,N/A,,Clear,150,2013-03-09 17:15:00
11:35 AM,41.0,32.0,70,30.19,10.0,SE,13.8,-,N/A,,Clear,130,2013-03-09 17:35:00
11:55 AM,42.8,33.8,70,30.17,10.0,SE,13.8,-,N/A,,Clear,140,2013-03-09 17:55:00
12:15 PM,42.8,33.8,70,30.17,10.0,SSE,15.0,19.6,N/A,,Clear,150,2013-03-09 18:15:00
12:35 PM,42.8,32.0,66,30.15,10.0,SE,12.7,20.7,N/A,,Clear,140,2013-03-09 18:35:00
12:55 PM,42.8,33.8,70,30.14,10.0,SSE,15.0,-,N/A,,Clear,150,2013-03-09 18:55:00
1:15 PM,44.6,33.8,66,30.13,10.0,SSE,13.8,-,N/A,,Clear,150,2013-03-09 19:15:00
1:35 PM,42.8,33.8,70,30.12,10.0,SSE,12.7,-,N/A,,Clear,150,2013-03-09 19:35:00
1:55 PM,42.8,35.6,76,30.11,10.0,SE,12.7,-,N/A,,Clear,140,2013-03-09 19:55:00
2:15 PM,44.6,35.6,71,30.10,10.0,SSE,10.4,-,N/A,,Clear,150,2013-03-09 20:15:00
2:35 PM,42.8,35.6,76,30.09,10.0,SSE,11.5,-,N/A,,Scattered Clouds,150,2013-03-09 20:35:00
2:55 PM,44.6,37.4,76,30.07,10.0,SE,13.8,-,N/A,,Partly Cloudy,140,2013-03-09 20:55:00
3:15 PM,44.6,35.6,71,30.06,10.0,SE,11.5,21.9,N/A,,Partly Cloudy,140,2013-03-09 21:15:00
3:35 PM,42.8,35.6,76,30.06,10.0,SE,12.7,18.4,N/A,,Mostly Cloudy,140,2013-03-09 21:35:00
3:55 PM,42.8,35.6,76,30.06,10.0,SSE,10.4,-,N/A,,Overcast,150,2013-03-09 21:55:00
4:15 PM,42.8,35.6,76,30.04,10.0,SE,12.7,-,N/A,,Overcast,130,2013-03-09 22:15:00
4:35 PM,42.8,35.6,76,30.05,10.0,SE,9.2,-,N/A,,Overcast,130,2013-03-09 22:35:00
4:55 PM,42.8,37.4,81,30.04,10.0,ESE,8.1,-,N/A,,Overcast,120,2013-03-09 22:55:00
5:15 PM,42.8,37.4,81,30.04,10.0,ESE,8.1,-,N/A,,Overcast,120,2013-03-09 23:15:00
5:35 PM,41.0,35.6,81,30.03,10.0,ESE,10.4,-,N/A,,Overcast,120,2013-03-09 23:35:00
5:55 PM,41.0,35.6,81,30.02,10.0,SE,10.4,-,N/A,,Scattered Clouds,130,2013-03-09 23:55:00
6:15 PM,39.2,35.6,87,30.02,10.0,SE,10.4,-,N/A,,Partly Cloudy,130,2013-03-10 00:15:00
6:35 PM,39.2,33.8,81,30.01,10.0,ESE,10.4,-,N/A,,Partly Cloudy,120,2013-03-10 00:35:00
6:55 PM,39.2,33.8,81,30.01,10.0,SE,9.2,-,N/A,,Clear,130,2013-03-10 00:55:00
7:15 PM,37.4,33.8,87,30.00,10.0,SE,11.5,-,N/A,,Clear,140,2013-03-10 01:15:00
7:35 PM,41.0,35.6,81,29.99,10.0,SSE,12.7,-,N/A,,Clear,150,2013-03-10 01:35:00
7:55 PM,42.8,35.6,76,29.98,10.0,SSE,15.0,-,N/A,,Clear,150,2013-03-10 01:55:00
8:15 PM,42.8,35.6,76,29.98,10.0,SSE,12.7,-,N/A,,Clear,150,2013-03-10 02:15:00
8:35 PM,42.8,35.6,76,29.97,10.0,SSE,12.7,-,N/A,,Clear,150,2013-03-10 02:35:00
8:55 PM,42.8,35.6,76,29.97,10.0,SSE,11.5,-,N/A,,Mostly Cloudy,160,2013-03-10 02:55:00
9:15 PM,44.6,35.6,71,29.96,10.0,SSE,13.8,-,N/A,,Overcast,160,2013-03-10 03:15:00
9:35 PM,44.6,35.6,71,29.96,10.0,South,12.7,-,N/A,,Overcast,170,2013-03-10 03:35:00
9:55 PM,44.6,35.6,71,29.95,10.0,South,13.8,-,N/A,,Mostly Cloudy,170,2013-03-10 03:55:00
10:15 PM,44.6,35.6,71,29.95,10.0,South,12.7,-,N/A,,Mostly Cloudy,170,2013-03-10 04:15:00
10:35 PM,44.6,35.6,71,29.95,10.0,South,11.5,-,N/A,,Mostly Cloudy,170,2013-03-10 04:35:00
10:55 PM,44.6,35.6,71,29.94,10.0,South,12.7,-,N/A,,Partly Cloudy,170,2013-03-10 04:55:00
11:15 PM,44.6,35.6,71,29.93,10.0,South,12.7,-,N/A,,Partly Cloudy,170,2013-03-10 05:15:00
11:35 PM,44.6,35.6,71,29.92,10.0,South,13.8,-,N/A,,Clear,170,2013-03-10 05:35:00
11:55 PM,44.6,35.6,71,29.92,10.0,South,10.4,-,N/A,,Scattered Clouds,170,2013-03-10 05:55:00